Berlin, NH

3:40 PM EDT on August 20, 2017 (GMT -0400)
Berlin Municipal

Weather History for KBML - August, 2013

Change the Weather History Date:

Sunday, August 25, 2013

  Actual Average Record
Temperature  
Mean Temperature 58 °F -  
Max Temperature 78 °F 73 °F 88 °F (2007)
Min Temperature 39 °F 45 °F 35 °F (2001)
Degree Days  
Heating Degree Days 7    
Growing Degree Days 8 (Base 50)    
Moisture  
Dew Point 46 °F    
Average Humidity 81    
Maximum Humidity 100    
Minimum Humidity 33    
Precipitation  
Precipitation 0.00 in - - ()
Sea Level Pressure  
Sea Level Pressure 30.33 in    
Wind  
Wind Speed 1 mph (NW)    
Max Wind Speed 6 mph    
Max Gust Speed -    
Visibility 6 miles    
Events Fog    
Averages and records for this station are not official NWS values.
T = Trace of Precipitation, MM = Missing Value Source: NWS Daily Summary

Daily Weather History Graph

Daily Weather History Graph

Search for Another Location

Airport or City:

Trip Planner

Search our weather history database for the weather conditions in past years. The results will help you decide how hot, cold, wet, or windy it might be!

Date:

Astronomy

Aug. 25, 2013 Rise Set
Actual Time 5:59 AM EDT 7:33 PM EDT
Civil Twilight 5:28 AM EDT 8:03 PM EDT
Nautical Twilight 4:51 AM EDT 8:40 PM EDT
Astronomical Twilight 4:11 AM EDT 9:20 PM EDT
Moon 9:47 PM EDT (8/25) 11:12 AM EDT (8/25)
Length of Visible Light 14h 35m
Length of Day
13h 33m
Waning Gibbous, 76% of the Moon is Illuminated
Aug 25
Waning Gibbous
Aug 28
Last Quarter
Sep 5
New
Sep 12
First Quarter
Sep 19
Full

Hourly Weather History & Observations

Time (EDT) Temp. Dew Point Humidity Pressure Visibility Wind Dir Wind Speed Gust Speed Precip Events Conditions
12:03 AM 42.8 °F 42.8 °F 100% 30.36 in 10.0 mi Calm Calm - N/A   Partly Cloudy
12:52 AM 42.1 °F 39.9 °F 92% 30.37 in 10.0 mi Calm Calm - N/A   Scattered Clouds
1:07 AM 42.8 °F 39.2 °F 87% 30.36 in 3.0 mi Calm Calm - N/A   Mostly Cloudy
1:09 AM 42.8 °F 39.2 °F 87% 30.36 in 1.8 mi Calm Calm - N/A   Mostly Cloudy
1:22 AM 41.0 °F 39.2 °F 93% 30.36 in 3.0 mi Calm Calm - N/A   Overcast
1:25 AM 41.0 °F 39.2 °F 93% 30.36 in 1.8 mi Calm Calm - N/A   Overcast
1:29 AM 41.0 °F 39.2 °F 93% 30.36 in 1.0 mi Calm Calm - N/A   Mist
1:35 AM 41.0 °F 41.0 °F 100% 30.36 in 0.2 mi Calm Calm - N/A Fog Fog
1:52 AM 42.1 °F 42.1 °F 100% 30.37 in 0.2 mi Calm Calm - N/A Fog Fog
2:28 AM 41.0 °F 41.0 °F 100% 30.35 in 0.5 mi Calm Calm - N/A Fog Fog
2:40 AM 39.2 °F 39.2 °F 100% 30.36 in 0.2 mi Calm Calm - N/A Fog Fog
2:52 AM 42.1 °F 41.0 °F 96% 30.37 in 0.2 mi Calm Calm - N/A Fog Fog
3:52 AM 42.1 °F 41.0 °F 96% 30.37 in 0.2 mi Calm Calm - N/A Fog Fog
4:52 AM 42.1 °F 41.0 °F 96% 30.38 in 0.2 mi Calm Calm - N/A Fog Fog
5:52 AM 41.0 °F 39.9 °F 96% 30.40 in 0.2 mi Calm Calm - N/A Fog Fog
6:52 AM 41.0 °F 41.0 °F 100% 30.42 in 0.2 mi Calm Calm - N/A Fog Fog
7:52 AM 44.1 °F 44.1 °F 100% 30.41 in 0.2 mi Calm Calm - N/A Fog Fog
8:10 AM 46.4 °F 44.6 °F 93% 30.39 in 1.2 mi Calm Calm - N/A   Mostly Cloudy
8:12 AM 46.4 °F 44.6 °F 93% 30.39 in 4.0 mi Calm Calm - N/A   Mostly Cloudy
8:24 AM 48.2 °F 46.4 °F 93% 30.39 in 10.0 mi Calm Calm - N/A   Scattered Clouds
8:52 AM 54.0 °F 48.9 °F 83% 30.41 in 10.0 mi Calm Calm - N/A   Clear
9:52 AM 63.0 °F 51.1 °F 65% 30.39 in 10.0 mi Calm Calm - N/A   Clear
10:52 AM 69.1 °F 52.0 °F 54% 30.36 in 10.0 mi Variable 3.5 mph - N/A   Clear
11:52 AM 72.0 °F 50.0 °F 46% 30.33 in 10.0 mi NNW 4.6 mph - N/A   Clear
12:52 PM 75.0 °F 50.0 °F 41% 30.31 in 10.0 mi Variable 4.6 mph - N/A   Clear
1:52 PM 75.9 °F 51.1 °F 42% 30.30 in 10.0 mi WNW 5.8 mph - N/A   Clear
2:52 PM 77.0 °F 50.0 °F 39% 30.27 in 10.0 mi NW 3.5 mph - N/A   Clear
3:52 PM 77.0 °F 48.9 °F 37% 30.25 in 10.0 mi Variable 4.6 mph - N/A   Clear
4:52 PM 77.0 °F 46.0 °F 33% 30.23 in 10.0 mi Variable 5.8 mph - N/A   Clear
5:52 PM 73.9 °F 48.9 °F 41% 30.22 in 10.0 mi Variable 3.5 mph - N/A   Clear
6:52 PM 64.0 °F 55.9 °F 75% 30.21 in 10.0 mi Calm Calm - N/A   Clear
7:52 PM 61.0 °F 55.9 °F 83% 30.21 in 10.0 mi Calm Calm - N/A   Clear
8:52 PM 57.9 °F 55.0 °F 90% 30.20 in 10.0 mi Calm Calm - N/A   Clear
9:52 PM 55.0 °F 53.1 °F 93% 30.19 in 10.0 mi Calm Calm - N/A   Clear
10:52 PM 54.0 °F 52.0 °F 93% 30.18 in 10.0 mi Calm Calm - N/A   Clear
11:52 PM 55.0 °F 53.1 °F 93% 30.16 in 10.0 mi Calm Calm - N/A   Clear